Regional Weather Roundup
Issued by NWS Lake Charles, LA

Home | Current Version | Previous Version | Text Only | Print | Product List | Glossary On
Versions: 1 2 3 4 5 6 7 8 9 10 11 12 13 14 15 16 17 18 19 20 21 22 23 24 25 26 27 28 29 30 31 32 33 34 35 36 37 38 39 40 41 42 43 44 45 46 47 48 49 50
000
ASUS44 KLCH 272310
RWRLCH
RWRLCH
REGIONAL WEATHER ROUNDUP
NATIONAL WEATHER SERVICE LAKE CHARLES LA
500 PM CST FRI FEB 27 2015

Note: "fair" indicates few or no clouds below 12,000 feet with no
significant weather and/or obstructions to visibility.


ACROSS SOUTHEAST TEXAS

CITY           SKY/WX    TMP DP  RH WIND       PRES   REMARKS
BEAUMONT       SUNNY     52  33  48 E7        30.32R
BEAUMONT CITY    N/A     52  32  46 CALM      30.32R
ORANGE         CLEAR     52  34  49 E6        30.34R
JASPER         CLOUDY    46  30  54 N8        30.37R
$$

ACROSS CENTRAL LOUISIANA

CITY           SKY/WX    TMP DP  RH WIND       PRES   REMARKS
LEESVILLE      MOSUNNY   47  28  48 NE10      30.33R
FULLERTON        N/A     49  27  42 VRB5      30.32S
ALEXANDRIA INT CLOUDY    43  27  53 N14       30.37R
ESLER FIELD    MOSUNNY   43  26  51 NE8G17    30.38R
DERIDDER         N/A     50  28  42 CALM      30.35R
OAKDALE        CLEAR     47  31  54 NE7       30.35R
OPELOUSAS        N/A     47  33  57 N15       30.33S
$$

ACROSS SOUTHWEST AND SOUTH CENTRAL LOUISIANA

CITY           SKY/WX    TMP DP  RH WIND       PRES   REMARKS
SULPHUR        CLEAR     53  33  46 E6        30.33R
LAKE CHARLES   SUNNY     50  33  52 E10       30.33R
CHENNAULT INT  NOT AVBL
CAMERON PHI    CLEAR     50  36  57 NE13      30.34S
DEQUINCY       NOT AVBL
JENNINGS         N/A     48  33  57 NE7G17    30.33R
LAFAYETTE      SUNNY     51  33  50 NE9       30.32R
NEW IBERIA     SUNNY     53  35  50 N14       30.31S
ABBEVILLE        N/A     51  35  54 N8        30.31S
PATTERSON      SUNNY     52  34  50 E13       30.30S
SALT POINT       N/A     54  34  46 MISG      30.28R
$$

SELECTED SITES ACROSS THE REGION

CITY           SKY/WX    TMP DP  RH WIND       PRES   REMARKS
HOUSTON BUSH   CLOUDY    46  33  60 NE3       30.33F
HOUSTON HOBBY  CLOUDY    44  33  65 NE8       30.33S
GALVESTON      CLOUDY    45  37  73 NE17      30.33R
COLLEGE STAT   CLOUDY    40  26  57 NE14      30.32S
CONROE         CLOUDY    46  29  51 NE7       30.34S
HUNTSVILLE     CLOUDY    41  27  57 NE6       30.33S
LUFKIN         CLOUDY    43  25  49 NE9       30.37S
SHREVEPORT     CLOUDY    33  20  58 N9        30.45R WCI  25
MONROE         CLOUDY    34  23  64 NE12      30.48R WCI  25
NATCHEZ MS     SUNNY     39  27  60 N14G21    30.39R
BATON ROUGE    SUNNY     52  32  46 NE9       30.32S
N.O. INTL ARPT MOSUNNY   51  33  50 N13       30.31F
SLIDELL        SUNNY     52  32  46 N10       30.32R
$$

MARINE REPORTS

STATION/POSITION TIME  TEMP    WIND        PRES    VSBY  WAVE
                       AIR SEA DIR/SP/G                  HT/PER
                 (UTC) (F)     (DEG/KT/KT) (MB)    (MI)  (FT/S)
BUOY 30 S HIGH I 2300   45 56   40/ 17/ 19 1025.9R         3/ 5
SEA RIM ST PARK  2300   48      70/  6/  8 1027.4R
PORT ARTHUR      2300      53  110/  6/  8 1026.8S
SABINE PASS N    2300   48 52   50/  7/ 10 1026.9R
TEXAS POINT      NOT AVBL
CALCASIEU PASS   2300   49 53   70/  9/ 13   N/A
LK CHARLES BEACH 2300   51                 1026.9R
MARSH ISLAND     NOT AVBL
FRESH WATER LOCK 2300   53 49   50/  9/ 13 1025.9R
AMERADA PASS     2300   53 49   70/  5/  9 1025.5R
$$



USA.gov is the U.S. government's official web portal to all federal, state and local government web resources and services.